Home > Weather > Phuket > Past weeks

Flag for Thailand Weather for the Past 2 Weeks in Phuket, Thailand

Now
84 °F

Passing clouds.


Feels Like: 90 °F
Forecast: 80 / 91 °F
Wind: 9 mph from East

Location: Phuket Airport

Current Time: Feb 13, 2016 at 10:44:10 AM

Latest Report: Feb 13, 2016 at 9:30 AM


Visibility: N/A

Pressure: 29.89 "Hg

Humidity: 66%

Dew point: 72 °F

Location of PhuketLocation

Historic Weather in Phuket — Graph

°F

Phuket Temperature Yesterday

Maximum temperature yesterday: 91 °F (at 2:30 PM)
Minimum temperature yesterday: 77 °F (at 12:00 AM)
Average temperature yesterday: 83 °F

High & Low Weather Summary for the Past Weeks

 TemperatureHumidityPressure
High91 °F (Jan 30, 5:00 PM)94% (Jan 31, 1:30 AM)29.98 "Hg (Jan 31, 1:30 AM)
Low75 °F (Feb 5, 2:30 AM)46% (Feb 10, 2:00 PM)29.74 "Hg (Feb 5, 4:00 PM)
Average82 °F71%29.86 "Hg
* Reported Jan 29 9:00 AM — Feb 13 9:30 AM, Phuket, Weather by CustomWeather, © 2016

Note: Actual official high and low records may vary slightly from our data, if they occured in-between our weather recording intervals... More about our weather records

Advertising

Phuket Weather History for the Previous 24 Hours

 ConditionsComfort  
Time TempWeatherWind HumidityBarometerVisibility
9:30 AM
Sat, Feb 13
84 °FPassing clouds.9 mph66%29.89 "HgN/A
9:00 AM82 °FPassing clouds.9 mph70%29.89 "HgN/A
8:00 AM81 °FPartly sunny.6 mph74%29.86 "Hg6 mi
7:00 AM77 °FPartly sunny.7 mph83%29.86 "Hg6 mi
6:30 AM75 °FPassing clouds.No wind89%29.86 "Hg6 mi
6:00 AM75 °FPassing clouds.No wind89%29.83 "Hg6 mi
4:00 AM77 °FPassing clouds.No wind83%29.83 "Hg6 mi
3:00 AM79 °FPassing clouds.No wind79%29.83 "Hg6 mi
2:30 AM77 °FPassing clouds.No wind83%29.83 "Hg6 mi
2:00 AM79 °FPassing clouds.No wind79%29.86 "Hg6 mi
1:00 AM79 °FPartly cloudy.No wind79%29.86 "Hg6 mi
12:30 AM79 °FPartly cloudy.5 mph84%29.86 "Hg6 mi
11:30 PM
Fri, Feb 12
79 °FPartly cloudy.No wind84%29.89 "Hg6 mi
11:00 PM79 °FPartly cloudy.No wind84%29.89 "Hg6 mi
10:30 PM81 °FPartly cloudy.3 mph79%29.89 "Hg6 mi
10:00 PM81 °FPartly cloudy.2 mph79%29.86 "Hg6 mi
9:30 PM79 °FPartly cloudy.No wind84%29.86 "Hg6 mi
9:00 PM81 °FPartly cloudy.No wind79%29.86 "Hg6 mi
8:30 PM81 °FPartly cloudy.No wind79%29.86 "Hg6 mi
8:00 PM82 °FPartly cloudy.No wind74%29.83 "Hg6 mi
7:30 PM82 °FPartly cloudy.3 mph74%29.83 "Hg6 mi
7:00 PM82 °FPartly cloudy.5 mph74%29.80 "Hg6 mi
6:30 PM84 °FBroken clouds.5 mph70%29.80 "Hg6 mi
6:00 PM84 °FBroken clouds.5 mph70%29.80 "Hg6 mi
5:30 PM84 °FBroken clouds.5 mph70%29.80 "Hg6 mi
5:00 PM84 °FBroken clouds.6 mph74%29.80 "Hg6 mi
4:30 PM84 °FBroken clouds.7 mph74%29.77 "Hg6 mi
4:00 PM88 °FBroken clouds.5 mph59%29.77 "Hg6 mi
3:30 PM90 °FBroken clouds.6 mph55%29.77 "Hg6 mi
3:00 PM91 °FPartly sunny.9 mph49%29.77 "HgN/A
2:30 PM91 °FScattered clouds.10 mph49%29.77 "HgN/A
2:00 PM90 °FScattered clouds.10 mph52%29.80 "HgN/A
1:30 PM90 °FScattered clouds.10 mph52%29.77 "HgN/A
12:30 PM90 °FScattered clouds.10 mph55%29.83 "HgN/A
12:00 PM88 °FScattered clouds.12 mph55%29.86 "HgN/A
11:30 AM88 °FScattered clouds.10 mph55%29.86 "HgN/A
11:00 AM88 °FPartly sunny.13 mph55%29.86 "HgN/A
10:30 AM86 °FPartly sunny.N/A62%29.89 "HgN/A
10:00 AM86 °FPartly sunny.17 mph62%29.86 "Hg6 mi
Weather by CustomWeather, © 2016

See weather overviewHow to use our weather pages